TimePDT,TemperatureF,Dew PointF,Humidity,Sea Level PressureIn,VisibilityMPH,Wind Direction,Wind SpeedMPH,Gust SpeedMPH,PrecipitationIn,Events,Conditions,WindDirDegrees,DateUTC
12:53 AM,57.0,39.0,51,30.04,10.0,SSW,8.1,-,N/A,,Clear,210,2013-04-26 07:53:00
1:53 AM,55.9,39.9,55,30.04,10.0,SSW,10.4,-,N/A,,Clear,210,2013-04-26 08:53:00
2:53 AM,57.0,41.0,55,30.04,10.0,SW,15.0,-,N/A,,Clear,230,2013-04-26 09:53:00
3:53 AM,54.0,39.9,59,30.05,10.0,SSW,11.5,-,N/A,,Clear,200,2013-04-26 10:53:00
4:53 AM,53.1,41.0,64,30.06,10.0,SSW,9.2,-,N/A,,Clear,210,2013-04-26 11:53:00
5:53 AM,53.1,39.9,61,30.07,10.0,SSW,9.2,-,N/A,,Clear,210,2013-04-26 12:53:00
6:53 AM,54.0,39.9,59,30.09,10.0,SSW,8.1,-,N/A,,Clear,210,2013-04-26 13:53:00
7:53 AM,62.1,39.9,44,30.11,10.0,SSW,6.9,-,N/A,,Clear,200,2013-04-26 14:53:00
8:53 AM,66.9,37.9,34,30.12,10.0,Calm,Calm,-,N/A,,Clear,0,2013-04-26 15:53:00
9:53 AM,70.0,37.0,30,30.12,10.0,Calm,Calm,-,N/A,,Clear,0,2013-04-26 16:53:00
10:53 AM,73.9,34.0,23,30.12,10.0,East,4.6,-,N/A,,Clear,90,2013-04-26 17:53:00
11:53 AM,78.1,33.1,19,30.11,10.0,NNE,5.8,-,N/A,,Clear,30,2013-04-26 18:53:00
12:53 PM,82.0,26.1,13,30.09,10.0,ENE,9.2,-,N/A,,Clear,60,2013-04-26 19:53:00
1:53 PM,82.9,25.0,12,30.08,10.0,SE,6.9,-,N/A,,Clear,140,2013-04-26 20:53:00
2:53 PM,84.9,19.9,9,30.05,10.0,NW,5.8,-,N/A,,Clear,310,2013-04-26 21:53:00
3:53 PM,86.0,17.1,8,30.04,10.0,Calm,Calm,-,N/A,,Clear,0,2013-04-26 22:53:00
4:53 PM,84.9,17.1,8,30.03,10.0,Calm,Calm,-,N/A,,Clear,0,2013-04-26 23:53:00
5:53 PM,82.9,37.9,20,30.02,10.0,WSW,17.3,-,N/A,,Clear,240,2013-04-27 00:53:00
6:53 PM,77.0,37.0,24,30.05,10.0,WSW,16.1,-,N/A,,Clear,240,2013-04-27 01:53:00
7:53 PM,73.0,37.0,27,30.07,10.0,WNW,8.1,-,N/A,,Clear,290,2013-04-27 02:53:00
8:53 PM,70.0,36.0,29,30.10,10.0,WNW,10.4,-,N/A,,Clear,300,2013-04-27 03:53:00
9:53 PM,66.0,37.0,34,30.12,10.0,West,8.1,-,N/A,,Clear,260,2013-04-27 04:53:00
10:53 PM,64.9,33.1,31,30.12,10.0,SSW,5.8,-,N/A,,Clear,200,2013-04-27 05:53:00
11:53 PM,63.0,39.0,41,30.12,10.0,South,5.8,-,N/A,,Clear,180,2013-04-27 06:53:00